Richmond, KY

12:54 AM EST on January 21, 2017 (GMT -0500)
Richmond

Weather History for KI39 - March, 2013

Change the Weather History Date:

Wednesday, March 13, 2013

  Actual Average (KLEX) Record (KLEX)
Temperature  
Mean Temperature 32 °F -  
Max Temperature 37 °F 54 °F 81 °F (1967)
Min Temperature 28 °F 35 °F 4 °F (1960)
Degree Days  
Heating Degree Days 32    
Moisture  
Dew Point 22 °F    
Average Humidity 67    
Maximum Humidity 93    
Minimum Humidity 48    
Precipitation  
Precipitation 0.00 in - - ()
Sea Level Pressure  
Sea Level Pressure 30.19 in    
Wind  
Wind Speed 12 mph (WNW)    
Max Wind Speed 39 mph    
Max Gust Speed 55 mph    
Visibility 10 miles    
Events      
Averages and records for this station are not official NWS values.
T = Trace of Precipitation, MM = Missing Value Source: NWS Daily Summary

Daily Weather History Graph

Daily Weather History Graph

Search for Another Location

Airport or City:

Trip Planner

Search our weather history database for the weather conditions in past years. The results will help you decide how hot, cold, wet, or windy it might be!

Date:

Astronomy

Mar. 13, 2013 Rise Set
Actual Time 7:51 AM EDT 7:42 PM EDT
Civil Twilight 7:24 AM EDT 8:09 PM EDT
Nautical Twilight 6:54 AM EDT 8:39 PM EDT
Astronomical Twilight 6:23 AM EDT 9:10 PM EDT
Moon 8:33 AM EDT (3/13) 9:55 PM EDT (3/13)
Length of Visible Light 12h 44m
Length of Day
11h 51m
Waxing Crescent, 4% of the Moon is Illuminated
Mar 13
Waxing Crescent
Mar 19
First Quarter
Mar 27
Full
Apr 3
Last Quarter
Apr 10
New

Hourly Weather History & Observations

Time (EDT) Temp. Windchill Dew Point Humidity Pressure Visibility Wind Dir Wind Speed Gust Speed Precip Events Conditions
12:15 AM 37.4 °F 31.4 °F 26.6 °F 65% 30.08 in 10.0 mi WSW 8.1 mph - N/A   Clear
12:35 AM 37.4 °F 32.1 °F 26.6 °F 65% 30.08 in 10.0 mi WSW 6.9 mph - N/A   Clear
1:15 AM 37.4 °F 31.4 °F 24.8 °F 60% 30.08 in 10.0 mi SW 8.1 mph - N/A   Scattered Clouds
1:55 AM 37.4 °F 28.9 °F 26.6 °F 65% 30.09 in 10.0 mi West 13.8 mph - N/A   Overcast
2:15 AM 37.4 °F 27.8 °F 28.4 °F 70% 30.08 in 10.0 mi WNW 17.3 mph 25.3 mph N/A   Overcast
2:35 AM 37.4 °F 31.4 °F 28.4 °F 70% 30.08 in 10.0 mi WNW 8.1 mph - N/A   Overcast
2:55 AM 35.6 °F 28.0 °F 28.4 °F 75% 30.08 in 10.0 mi WNW 10.4 mph - N/A   Overcast
3:15 AM 35.6 °F 28.6 °F 28.4 °F 75% 30.08 in 10.0 mi WNW 9.2 mph - N/A   Overcast
3:35 AM 35.6 °F 29.2 °F 30.2 °F 81% 30.07 in 10.0 mi WNW 8.1 mph - N/A   Overcast
3:55 AM 33.8 °F 28.6 °F 28.4 °F 81% 30.07 in 10.0 mi WSW 5.8 mph - N/A   Mostly Cloudy
4:15 AM 33.8 °F 29.6 °F 30.2 °F 87% 30.06 in 10.0 mi SW 4.6 mph - N/A   Overcast
4:35 AM 33.8 °F 27.7 °F 30.2 °F 87% 30.06 in 10.0 mi SW 6.9 mph - N/A   Mostly Cloudy
4:55 AM 33.8 °F 28.6 °F 30.2 °F 87% 30.06 in 10.0 mi WSW 5.8 mph - N/A   Mostly Cloudy
5:15 AM 33.8 °F 28.6 °F 30.2 °F 87% 30.05 in 10.0 mi SW 5.8 mph - N/A   Mostly Cloudy
5:35 AM 33.8 °F 27.7 °F 30.2 °F 87% 30.05 in 10.0 mi SW 6.9 mph - N/A   Overcast
5:55 AM 33.8 °F 29.6 °F 30.2 °F 87% 30.05 in 10.0 mi West 4.6 mph - N/A   Overcast
6:15 AM 33.8 °F 26.4 °F 30.2 °F 87% 30.06 in 10.0 mi West 9.2 mph - N/A   Overcast
6:35 AM 33.8 °F 27.7 °F 30.2 °F 87% 30.06 in 10.0 mi West 6.9 mph - N/A   Overcast
7:15 AM 32.0 °F 24.2 °F 28.4 °F 87% 30.07 in 10.0 mi West 9.2 mph - N/A   Scattered Clouds
7:35 AM 32.0 °F 23.6 °F 28.4 °F 87% 30.08 in 10.0 mi West 10.4 mph - N/A   Mostly Cloudy
7:55 AM 32.0 °F 24.2 °F 26.6 °F 80% 30.08 in 10.0 mi West 9.2 mph - N/A   Overcast
8:15 AM 32.0 °F 24.8 °F 26.6 °F 80% 30.09 in 10.0 mi West 8.1 mph - N/A   Overcast
8:35 AM 32.0 °F 16.0 °F 28.4 °F 87% 30.11 in 0.5 mi West 39.1 mph 55.2 mph N/A   Overcast
8:55 AM 30.2 °F 18.1 °F 28.4 °F 93% 30.12 in 1.0 mi West 18.4 mph 24.2 mph N/A   Overcast
9:35 AM 30.2 °F 18.1 °F 24.8 °F 80% 30.14 in 10.0 mi West 18.4 mph 23.0 mph N/A   Overcast
9:55 AM 30.2 °F 19.8 °F 24.8 °F 80% 30.15 in 10.0 mi WNW 13.8 mph 21.9 mph N/A   Overcast
10:15 AM 30.2 °F 19.8 °F 23.0 °F 75% 30.15 in 10.0 mi WNW 13.8 mph - N/A   Overcast
10:35 AM 30.2 °F 18.9 °F 23.0 °F 75% 30.17 in 10.0 mi WNW 16.1 mph 26.5 mph N/A   Overcast
10:55 AM 30.2 °F 18.1 °F 19.4 °F 64% 30.18 in 10.0 mi West 18.4 mph 26.5 mph N/A   Overcast
11:15 AM 32.0 °F 21.6 °F 21.2 °F 64% 30.18 in 10.0 mi WNW 15.0 mph 27.6 mph N/A   Overcast
11:35 AM 30.2 °F 18.5 °F 21.2 °F 69% 30.19 in 10.0 mi West 17.3 mph 24.2 mph N/A   Overcast
11:55 AM 30.2 °F 18.5 °F 19.4 °F 64% 30.20 in 10.0 mi WNW 17.3 mph 24.2 mph N/A   Overcast
12:15 PM 32.0 °F 20.8 °F 19.4 °F 60% 30.20 in 10.0 mi NW 17.3 mph 25.3 mph N/A   Overcast
12:35 PM 32.0 °F 20.5 °F 17.6 °F 55% 30.21 in 10.0 mi WNW 18.4 mph 25.3 mph N/A   Overcast
12:55 PM 32.0 °F 20.1 °F 19.4 °F 60% 30.22 in 10.0 mi West 19.6 mph 24.2 mph N/A   Overcast
1:15 PM 32.0 °F 19.8 °F 19.4 °F 60% 30.22 in 10.0 mi West 20.7 mph 25.3 mph N/A   Overcast
1:35 PM 32.0 °F 21.2 °F 17.6 °F 55% 30.22 in 10.0 mi NW 16.1 mph 26.5 mph N/A   Overcast
1:55 PM 32.0 °F 22.1 °F 17.6 °F 55% 30.23 in 10.0 mi WNW 13.8 mph 21.9 mph N/A   Overcast
2:15 PM 32.0 °F 21.6 °F 19.4 °F 60% 30.23 in 10.0 mi West 15.0 mph 19.6 mph N/A   Overcast
2:35 PM 32.0 °F 21.6 °F 19.4 °F 60% 30.23 in 10.0 mi NW 15.0 mph 24.2 mph N/A   Overcast
2:55 PM 32.0 °F 19.5 °F 19.4 °F 60% 30.24 in 10.0 mi WNW 21.9 mph 27.6 mph N/A   Overcast
3:15 PM 32.0 °F 22.1 °F 19.4 °F 60% 30.23 in 10.0 mi WNW 13.8 mph 21.9 mph N/A   Overcast
3:35 PM 32.0 °F 21.6 °F 19.4 °F 60% 30.23 in 10.0 mi West 15.0 mph - N/A   Overcast
3:55 PM 32.0 °F 20.8 °F 17.6 °F 55% 30.24 in 10.0 mi West 17.3 mph - N/A   Overcast
4:15 PM 32.0 °F 22.1 °F 15.8 °F 51% 30.24 in 10.0 mi WNW 13.8 mph 20.7 mph N/A   Overcast
4:35 PM 33.8 °F 23.9 °F 15.8 °F 48% 30.24 in 10.0 mi West 15.0 mph - N/A   Overcast
4:55 PM 33.8 °F 24.3 °F 15.8 °F 48% 30.25 in 10.0 mi WNW 13.8 mph 19.6 mph N/A   Overcast
5:15 PM 32.0 °F 21.2 °F 15.8 °F 51% 30.25 in 10.0 mi WNW 16.1 mph 19.6 mph N/A   Overcast
5:35 PM 32.0 °F 21.6 °F 15.8 °F 51% 30.26 in 10.0 mi WNW 15.0 mph 24.2 mph N/A   Overcast
5:55 PM 32.0 °F 21.2 °F 15.8 °F 51% 30.27 in 10.0 mi West 16.1 mph 21.9 mph N/A   Overcast
6:15 PM 32.0 °F 21.2 °F 15.8 °F 51% 30.27 in 10.0 mi WNW 16.1 mph - N/A   Overcast
6:35 PM 32.0 °F 22.5 °F 15.8 °F 51% 30.27 in 10.0 mi WNW 12.7 mph 23.0 mph N/A   Overcast
6:55 PM 32.0 °F 21.2 °F 15.8 °F 51% 30.28 in 10.0 mi WNW 16.1 mph 20.7 mph N/A   Overcast
7:15 PM 32.0 °F 22.5 °F 15.8 °F 51% 30.28 in 10.0 mi NW 12.7 mph 18.4 mph N/A   Overcast
7:35 PM 32.0 °F 22.1 °F 17.6 °F 55% 30.29 in 10.0 mi WNW 13.8 mph 19.6 mph N/A   Overcast
7:55 PM 30.2 °F 20.8 °F 17.6 °F 60% 30.29 in 10.0 mi WNW 11.5 mph - N/A   Overcast
8:15 PM 30.2 °F 20.8 °F 17.6 °F 60% 30.29 in 10.0 mi WNW 11.5 mph - N/A   Overcast
8:35 PM 32.0 °F 23.0 °F 17.6 °F 55% 30.30 in 10.0 mi WNW 11.5 mph 20.7 mph N/A   Overcast
8:55 PM 30.2 °F 20.2 °F 17.6 °F 60% 30.30 in 10.0 mi WNW 12.7 mph - N/A   Overcast
9:15 PM 30.2 °F 19.3 °F 17.6 °F 60% 30.30 in 10.0 mi WNW 15.0 mph 24.2 mph N/A   Overcast
9:35 PM 30.2 °F 21.3 °F 17.6 °F 60% 30.31 in 10.0 mi WNW 10.4 mph - N/A   Overcast
9:55 PM 30.2 °F 19.3 °F 19.4 °F 64% 30.32 in 10.0 mi West 15.0 mph 19.6 mph N/A   Overcast
10:15 PM 30.2 °F 21.3 °F 19.4 °F 64% 30.33 in 10.0 mi WNW 10.4 mph - N/A   Overcast
10:35 PM 30.2 °F 21.3 °F 19.4 °F 64% 30.33 in 10.0 mi WNW 10.4 mph - N/A   Overcast
10:55 PM 30.2 °F 21.9 °F 21.2 °F 69% 30.33 in 10.0 mi WNW 9.2 mph 17.3 mph N/A   Overcast
11:15 PM 28.4 °F 19.1 °F 19.4 °F 69% 30.33 in 10.0 mi WNW 10.4 mph - N/A   Overcast
11:35 PM 28.4 °F 18.0 °F 19.4 °F 69% 30.33 in 10.0 mi NW 12.7 mph 17.3 mph N/A   Mostly Cloudy